Home > Weather > Regensburg > Past weeks

Flag for Germany Weather for the Past 2 Weeks in Regensburg, Bavaria, Germany

Now
39 °F

Clear.


Feels Like: 37 °F
Forecast: 41 / 49 °F
Wind: 3 mph from North

Location: Hohenfels

Current Time: Feb 8, 2016 at 5:36:59 AM

Latest Report: Feb 8, 2016 at 4:58 AM


Visibility: N/A

Pressure: 29.85 "Hg

Humidity: 75%

Dew point: 32 °F

Location of RegensburgLocation

Historic Weather in Regensburg — Graph

°F

Regensburg Temperature Yesterday

Maximum temperature yesterday: 50 °F (at 1:58 PM)
Minimum temperature yesterday: 28 °F (at 5:58 AM)
Average temperature yesterday: 40 °F

High & Low Weather Summary for the Past Weeks

 TemperatureHumidityPressure
High52 °F (Jan 27, 1:58 PM)100% (Jan 24, 5:59 AM)30.61 "Hg (Jan 24, 5:59 AM)
Low28 °F (Jan 30, 4:58 AM)54% (Jan 29, 2:58 PM)29.67 "Hg (Feb 7, 1:58 PM)
Average40 °F88%30.21 "Hg
* Reported Jan 24 3:58 AM — Feb 8 3:58 AM, Regensburg, Weather by CustomWeather, © 2016

Note: Actual official high and low records may vary slightly from our data, if they occured in-between our weather recording intervals... More about our weather records

Advertising

Regensburg Weather History for the Previous 24 Hours

 ConditionsComfort  
Time TempWeatherWind HumidityBarometerVisibility
3:58 AM
Mon, Feb 8
39 °FClear.7 mph81%29.85 "HgN/A
2:58 AM39 °FPassing clouds.6 mph87%29.86 "HgN/A
1:58 AM41 °FPassing clouds.8 mph81%29.87 "HgN/A
12:58 AM41 °FPassing clouds.6 mph81%29.89 "HgN/A
11:58 PM
Sun, Feb 7
43 °FClear.6 mph76%29.89 "HgN/A
10:58 PM43 °FPassing clouds.7 mph71%29.90 "HgN/A
9:58 PM43 °FOvercast.6 mph71%29.89 "HgN/A
8:58 PM43 °FMostly cloudy.8 mph71%29.88 "HgN/A
7:58 PM45 °FOvercast.12 mph71%29.85 "HgN/A
6:58 PM45 °FOvercast.3 mph76%29.81 "HgN/A
5:58 PM46 °FOvercast.7 mph71%29.80 "HgN/A
4:58 PM45 °FSunny.No wind76%29.76 "HgN/A
3:58 PM46 °FSunny.1 mph66%29.72 "HgN/A
2:58 PM48 °FSunny.2 mph62%29.69 "HgN/A
1:58 PM50 °FSunny.7 mph54%29.67 "HgN/A
12:58 PM48 °FSunny.7 mph54%29.68 "HgN/A
11:58 AM45 °FPassing clouds.8 mph61%29.71 "HgN/A
10:58 AM43 °FSunny.5 mph71%29.74 "HgN/A
9:58 AM39 °FSunny.5 mph81%29.76 "HgN/A
8:58 AM32 °FIce fog.2 mph100%29.79 "Hg5 mi
7:58 AM28 °FIce fog.2 mph100%29.81 "Hg3 mi
6:58 AM28 °FIce fog.1 mph100%29.80 "Hg6 mi
5:58 AM28 °FIce fog.2 mph100%29.81 "Hg4 mi
Weather by CustomWeather, © 2016

See weather overviewHow to use our weather pages